Probability
11 7 3 1 0 0 0 0 0 0 0 0 0 0 0 0 0 0 0 0 0 0 0 0 0 0 0 0 0 0 0 0 0 0 0 0 0 0 0 0 0 0 0 0
7 5 2 1 0 0 0 0 0 0 0 0 0 0 0 0 0 0 0 0 0 0 0 0 0 0 0 0 0 0 0 0 0 0 0 0 0 0 0 0 0 0 0 0
3 1 1 1 0 0 0 0 0 0 0 0 0 0 0 0 0 0 0 0 0 0 0 0 0 0 0 0 0 0 0 0 0 0 0 0 0 0 0 0 0 0 0 0
1 0 0 0 0 0 0 0 0 0 0 0 0 0 0 0 0 0 0 0 0 0 0 0 0 0 0 0 0 0 0 0 0 0 0 0 0 0 0 0 0 0 0 0
0 0 0 0 0 0 0 0 0 0 0 0 0 0 0 0 0 0 0 0 0 0 0 0 0 0 0 0 0 0 0 0 0 0 0 0 0 0 0 0 0 0 0 0
0 0 0 0 0 0 0 0 0 0 0 0 0 0 0 0 0 0 0 0 0 0 0 0 0 0 0 0 0 0 0 0 0 0 0 0 0 0 0 0 0 0 0 0
0 0 0 0 0 0 0 0 0 0 0 0 0 0 0 0 0 0 0 0 0 0 0 0 0 0 0 0 0 0 0 0 0 0 0 0 0 0 0 0 0 0 0 0
0 0 0 0 0 0 0 0 0 0 0 0 0 0 0 0 0 0 0 0 0 0 0 0 0 0 0 0 0 0 0 0 0 0 0 0 0 0 0 0 0 0 0 0
0 0 0 0 0 0 0 0 0 0 0 0 0 0 0 0 0 0 0 0 0 0 0 0 0 0 0 0 0 0 0 0 0 0 0 0 0 0 0 0 0 0 0 0
0 0 0 0 0 0 0 0 0 0 0 0 0 0 0 0 0 0 0 0 0 0 0 0 0 0 0 0 0 0 0 0 0 0 0 0 0 0 0 0 0 0 0 0
0 0 0 0 0 0 0 0 0 0 0 0 0 0 0 0 0 0 0 0 0 0 0 0 0 0 0 0 0 0 0 0 0 0 0 0 0 0 0 0 0 0 0 0
0 0 0 0 0 0 0 0 0 0 0 0 0 0 0 0 0 0 0 0 0 0 0 0 0 0 0 0 0 0 0 0 0 0 0 0 0 0 0 0 0 0 0 0
0 0 0 0 0 0 0 0 0 0 0 0 0 0 0 0 0 0 0 0 0 0 0 0 0 0 0 0 0 0 0 0 0 0 0 0 0 0 0 0 0 0 0 0
0 0 0 0 0 0 0 0 0 0 0 0 0 0 0 0 0 0 0 0 0 0 0 0 0 0 0 0 0 0 0 0 0 0 0 0 0 0 0 0 0 0 0 0
0 0 0 0 0 0 0 0 0 0 0 0 0 0 0 0 0 0 0 0 0 0 0 0 0 0 0 0 0 0 0 0 0 0 0 0 0 0 0 0 0 0 0 0
0 0 0 0 0 0 0 0 0 0 0 0 0 0 0 0 0 0 0 0 0 0 0 0 0 0 0 0 0 0 0 0 0 0 0 0 0 0 0 0 0 0 0 0
0 0 0 0 0 0 0 0 0 0 0 0 0 0 0 0 0 0 0 0 0 0 0 0 0 0 0 0 0 0 0 0 0 0 0 0 0 0 0 0 0 0 0 0
0 0 0 0 0 0 0 0 0 0 0 0 0 0 0 0 0 0 0 0 0 0 0 0 0 0 0 0 0 0 0 0 0 0 0 0 0 0 0 0 0 0 0 0
0 0 0 0 0 0 0 0 0 0 0 0 0 0 0 0 0 0 0 0 0 0 0 0 0 0 0 0 0 0 0 0 0 0 0 0 0 0 0 0 0 0 0 0
0 0 0 0 0 0 0 0 0 0 0 0 0 0 0 0 0 0 0 0 0 0 0 0 0 0 0 0 0 0 0 0 0 0 0 0 0 0 0 0 0 0 0 0
0 0 0 0 0 0 0 0 0 0 0 0 0 0 0 0 0 0 0 0 0 0 0 0 0 0 0 0 0 0 0 0 0 0 0 0 0 0 0 0 0 0 0 0
0 0 0 0 0 0 0 0 0 0 0 0 0 0 0 0 0 0 0 0 0 0 0 0 0 0 0 0 0 0 0 0 0 0 0 0 0 0 0 0 0 0 0 0
0 0 0 0 0 0 0 0 0 0 0 0 0 0 0 0 0 0 0 0 0 0 0 0 0 0 0 0 0 0 0 0 0 0 0 0 0 0 0 0 0 0 0 0
0 0 0 0 0 0 0 0 0 0 0 0 0 0 0 0 0 0 0 0 0 0 0 0 0 0 0 0 0 0 0 0 0 0 0 0 0 0 0 0 0 0 0 0
0 0 0 0 0 0 0 0 0 0 0 0 0 0 0 0 0 0 0 0 0 0 0 0 0 0 0 0 0 0 0 0 0 0 0 0 0 0 0 0 0 0 0 0
0 0 0 0 0 0 0 0 0 0 0 0 0 0 0 0 0 0 0 0 0 0 0 0 0 0 0 0 0 0 0 0 0 0 0 0 0 0 0 0 0 0 0 0
Wind_Speed
4 5 6 9 8 6 5 5 5 5 3 5 7 8 7 4 6 7 6 6 6 7 4 3 4 4 3 2 2 1 1 1 1 1 1 2 2 2 3 3 4 4 4 4
4 4 7 6 5 4 4 4 4 3 2 5 4 7 6 5 8 8 9 8 7 5 3 4 4 4 3 3 3 2 2 2 1 1 1 1 1 2 2 3 4 4 4 4
6 4 6 7 5 5 4 6 5 3 2 1 1 6 5 2 3 4 5 5 5 7 7 6 5 4 4 4 4 3 4 3 2 1 1 1 2 2 3 3 3 4 5 4
3 2 5 6 5 7 5 6 4 3 2 2 0 4 7 3 2 4 5 5 6 6 6 6 6 5 6 5 4 4 4 3 2 1 0 0 1 1 2 2 3 5 4 4
3 4 5 5 6 7 3 3 3 3 3 2 1 1 9 2 4 6 7 7 7 7 7 8 8 7 6 4 4 4 3 3 2 1 1 1 1 2 2 3 4 4 4 4
1 1 3 4 1 4 5 6 6 6 5 2 3 4 8 4 7 5 5 7 7 7 7 6 5 4 4 3 3 3 3 4 3 2 2 2 2 3 3 4 4 4 3 3
2 2 0 3 4 3 4 6 4 4 3 5 2 3 10 6 6 6 6 8 7 7 7 6 6 6 6 5 5 4 4 4 3 3 3 3 3 2 3 3 3 3 3 3
3 2 2 2 4 6 4 7 7 4 4 5 2 5 8 5 3 3 4 5 6 6 6 7 8 7 7 7 6 5 5 5 4 3 3 3 3 2 2 3 2 3 2 3
5 3 1 1 2 8 6 3 5 6 2 2 5 7 8 1 0 1 3 4 6 7 7 8 7 7 7 7 7 6 6 5 5 4 3 3 3 2 3 3 2 2 3 3
5 2 1 1 5 5 4 8 6 5 3 3 6 5 6 6 6 4 4 6 7 6 6 6 6 7 7 6 6 5 5 6 5 4 4 3 3 3 2 2 3 3 3 3
3 3 1 1 3 5 4 4 5 5 5 5 3 9 7 7 8 8 8 7 7 7 7 7 6 6 5 5 5 5 5 5 4 4 4 3 3 2 2 2 3 3 3 3
3 5 1 3 2 2 4 7 8 5 4 5 3 10 6 6 7 7 7 6 6 7 6 5 6 5 4 5 5 5 5 5 5 4 4 4 3 2 2 3 3 3 3 3
5 6 3 5 5 1 2 4 4 6 6 5 5 9 5 2 3 6 6 6 5 5 5 4 4 5 5 5 5 5 5 5 5 3 4 4 3 3 4 4 3 3 3 3
6 4 6 7 8 5 4 5 5 7 5 6 9 10 7 5 6 6 6 6 5 5 5 5 5 5 5 5 5 5 5 5 4 4 4 4 4 4 4 4 3 3 3 3
4 3 5 6 5 3 5 6 7 8 9 10 10 10 12 10 10 8 6 5 5 5 6 7 7 6 5 5 4 4 5 4 4 3 4 5 4 4 4 4 4 3 3 4
3 3 2 3 3 4 5 7 8 9 6 8 6 10 11 7 4 5 6 7 8 8 7 7 7 6 6 5 5 4 4 3 3 3 4 3 3 3 4 4 4 4 4 4
3 5 4 4 4 2 7 10 10 8 8 10 12 14 6 5 9 11 10 9 10 9 8 8 7 7 6 6 5 5 4 2 2 3 3 3 3 3 4 3 3 4 4 3
7 5 4 2 1 6 11 4 7 8 9 10 9 8 9 11 9 6 8 10 10 9 8 8 7 6 5 4 4 3 2 2 2 2 2 2 2 3 3 3 4 4 3 3
5 8 5 4 3 8 11 6 6 7 9 9 12 10 6 3 2 3 7 9 9 9 7 7 6 6 5 4 4 4 3 2 2 1 2 2 2 2 3 3 4 3 3 3
4 5 6 4 3 6 11 5 3 4 7 7 10 10 7 9 4 8 7 8 7 6 6 5 5 5 5 4 5 5 4 3 2 2 2 2 1 2 3 4 4 2 2 3
2 3 4 5 5 10 11 3 4 3 9 5 6 8 11 12 10 6 7 7 7 7 6 7 7 6 5 5 6 6 4 3 2 1 0 1 1 1 2 2 2 2 2 2
7 6 6 5 4 11 5 5 7 9 5 3 4 7 11 9 4 5 8 8 9 8 7 7 7 5 4 5 7 6 4 2 1 2 2 2 2 2 2 2 2 2 2 2
6 8 7 10 10 7 3 7 7 3 5 5 4 5 8 6 6 7 7 8 9 9 8 7 8 7 4 4 6 6 3 3 3 3 3 2 3 3 3 2 3 3 2 2
4 2 3 5 10 8 8 8 7 6 7 7 6 5 8 8 8 8 8 8 9 8 8 8 9 8 5 4 4 5 4 4 5 4 3 2 3 3 4 3 2 2 2 2
5 3 3 6 9 10 8 5 6 6 6 7 6 6 8 9 8 10 10 10 10 9 8 8 9 9 7 6 5 4 4 5 6 4 3 3 3 3 3 3 2 2 2 2
6 7 6 9 9 6 11 10 8 8 9 8 6 5 6 9 10 10 10 10 10 10 9 9 9 9 8 7 6 4 4 6 6 4 3 2 2 2 2 2 3 5 5 8
Wind_Direction
129 116 170 189 186 175 174 187 227 248 203 178 225 255 267 205 201 213 215 214 219 224 223 186 168 154 142 142 152 169 197 285 344 359 350 346 336 329 338 342 346 348 349 349
101 192 200 174 171 147 161 195 240 270 199 188 247 271 273 215 209 208 208 212 214 205 187 177 168 162 169 179 191 202 227 251 263 265 263 260 283 297 297 312 333 345 349 348
153 203 160 145 158 161 190 200 211 212 74 61 347 308 295 280 221 204 199 199 197 194 192 188 181 186 189 202 207 210 225 240 253 278 359 3 360 345 343 338 335 334 337 341
158 189 148 151 178 165 221 221 188 156 112 291 93 284 291 294 255 217 205 195 197 196 189 189 190 195 205 215 215 218 229 242 252 250 63 31 350 309 290 297 304 317 332 337
187 170 151 176 202 177 195 75 106 97 126 5 346 201 285 308 252 242 221 209 206 199 193 195 198 202 209 213 213 220 234 249 254 246 229 239 281 272 293 306 318 328 330 334
131 202 167 180 116 139 119 72 59 52 69 314 239 179 277 241 225 234 215 208 205 198 198 204 205 201 215 220 221 221 233 253 256 254 250 241 267 292 316 324 328 327 325 328
32 357 333 126 97 68 95 90 38 358 5 256 260 205 251 260 241 222 208 205 200 195 192 197 200 205 216 221 224 224 231 253 261 257 259 254 260 270 282 295 306 315 322 320
119 271 236 185 169 160 155 136 155 199 230 280 299 238 256 267 273 229 203 191 187 194 197 202 206 206 214 222 223 223 231 248 258 255 262 265 260 257 266 275 283 295 292 292
153 235 299 170 145 129 132 153 155 129 166 285 285 286 300 240 163 147 160 172 197 206 205 209 211 211 217 223 225 220 227 243 253 252 259 268 265 260 269 283 288 292 296 300
149 165 296 137 83 41 135 139 106 116 149 265 296 282 256 243 229 219 209 211 220 215 211 214 214 216 220 225 230 226 224 235 247 249 250 254 258 261 268 286 301 305 308 315
128 135 345 57 186 176 118 104 105 110 146 157 271 276 234 227 216 212 221 221 218 213 211 212 214 216 219 224 227 228 229 234 245 246 249 260 269 271 274 277 285 293 301 313
142 119 171 260 271 198 171 166 148 151 198 170 183 268 270 247 231 215 223 226 219 213 209 209 209 207 213 223 227 228 230 232 239 240 245 254 263 270 274 279 285 289 294 302
139 114 76 348 339 320 183 165 154 127 122 155 177 262 292 288 229 224 226 230 219 209 204 201 200 207 218 225 229 232 232 235 239 234 242 256 261 261 265 272 284 289 290 296
116 124 164 200 223 209 209 184 157 137 156 198 218 246 283 262 237 231 225 222 209 204 199 198 207 217 222 225 228 233 240 235 231 226 235 248 254 254 261 270 277 279 281 287
117 175 218 236 236 202 223 212 182 190 193 196 226 226 245 236 223 223 215 204 195 200 202 204 209 216 220 226 233 235 243 238 220 217 235 248 257 260 264 269 271 275 278 279
119 171 192 277 269 223 246 243 210 217 215 220 240 253 244 241 211 214 208 195 199 205 206 205 206 205 211 217 222 224 234 231 198 210 239 255 264 268 269 271 273 277 279 282
146 144 147 259 299 357 267 234 207 208 206 190 216 237 225 202 209 211 204 198 203 205 202 200 200 201 206 209 206 210 221 204 187 217 248 260 261 270 274 281 285 280 279 279
149 139 148 205 23 246 247 243 206 216 235 210 222 231 206 210 216 214 195 192 203 201 198 199 196 197 201 197 191 188 171 168 183 219 258 271 271 276 287 294 288 284 279 275
150 140 133 142 216 275 290 269 192 198 261 221 217 231 216 178 102 272 214 196 198 195 191 190 185 179 174 175 169 147 143 144 151 235 269 276 266 272 288 291 288 285 286 287
79 109 124 142 185 247 254 257 178 141 276 253 204 209 167 135 166 242 208 185 189 180 169 164 154 145 152 162 146 137 142 140 179 241 267 283 270 262 277 282 287 286 279 285
116 108 153 175 214 259 255 258 130 168 247 270 199 187 167 182 201 208 159 167 166 159 154 146 141 143 154 148 137 135 137 163 209 228 21 9 343 294 289 303 300 299 303 316
186 176 191 156 189 253 250 143 180 221 259 272 215 191 190 208 186 149 159 159 153 148 145 144 138 135 135 141 138 136 151 176 129 101 73 37 16 7 10 349 339 337 337 347
203 193 189 190 215 239 231 218 242 251 264 259 234 221 195 193 190 176 168 162 158 154 151 146 139 130 123 135 142 143 160 142 119 97 72 40 29 21 13 20 11 10 16 19
266 179 181 255 271 270 266 254 254 240 245 259 242 220 188 194 189 177 169 165 160 156 155 148 141 138 139 138 134 143 143 131 115 102 79 53 46 30 22 27 34 42 30 25
246 181 234 265 280 302 298 269 274 281 271 267 252 219 200 190 187 180 177 175 169 160 156 154 152 149 150 144 135 136 137 127 115 105 88 65 53 44 32 35 41 46 41 65
212 206 221 250 257 257 278 290 299 287 274 260 247 239 214 195 193 182 181 176 167 161 156 153 151 149 149 144 138 137 137 132 125 115 100 83 67 52 48 45 32 32 42 48